When you browse on this site, cookies collect data to enhance your experience and personalize the content and advertising you see.
Visit our Privacy Policy to learn more. By continuing to use the site, you agree to this use of cookies and data.
  • In Latvia
  • List of Countries
  • For 7 days
  • Water Temperature
  • Satellite Maps
  • Weather Map
  • Weather Widgets
  • user-avatar
    Login

    Hourly Weather Dinagepoor

    Today, 21 February, Thursday

    Time Temperature Precipitation Wind Pressure Humidity
    00:00 +22°C° 0 mm 3 mps 761 mmHg 61%
    01:00 +21°C° 0 mm 3 mps 761 mmHg 66%
    02:00 +21°C° 0 mm 3 mps 760 mmHg 71%
    03:00 +20°C° 0 mm 2 mps 760 mmHg 76%
    04:00 +20°C° 0 mm 2 mps 760 mmHg 77%
    05:00 +19°C° 0 mm 2 mps 761 mmHg 78%
    06:00 +19°C° 0 mm 2 mps 761 mmHg 79%
    07:00 +20°C° 0 mm 3 mps 761 mmHg 74%
    08:00 +21°C° 0 mm 3 mps 762 mmHg 69%
    09:00 +22°C° 0 mm 3 mps 762 mmHg 64%
    10:00 +25°C° 0 mm 2 mps 762 mmHg 57%
    11:00 +27°C° 0 mm 2 mps 761 mmHg 50%
    12:00 +29°C° 0 mm 1 mps 761 mmHg 43%
    13:00 +29°C° 0 mm 2 mps 760 mmHg 40%
    14:00 +30°C° 0 mm 2 mps 759 mmHg 38%
    15:00 +31°C° 0 mm 3 mps 758 mmHg 35%
    16:00 +30°C° 0 mm 2 mps 758 mmHg 37%
    17:00 +29°C° 0 mm 2 mps 758 mmHg 40%
    18:00 +28°C° 0 mm 2 mps 758 mmHg 43%
    19:00 +27°C° 0 mm 1 mps 758 mmHg 44%
    20:00 +27°C° 0 mm 1 mps 759 mmHg 46%
    21:00 +26°C° 0 mm 1 mps 759 mmHg 48%
    22:00 +25°C° 0 mm 1 mps 759 mmHg 49%
    23:00 +25°C° 0 mm 1 mps 759 mmHg 50%

    Tomorrow, 22 February, Friday

    Time Temperature Precipitation Wind Pressure Humidity
    00:00 +25°C° 0 mm 1 mps 758 mmHg 52%
    01:00 +24°C° 0 mm 1 mps 758 mmHg 54%
    02:00 +23°C° 0 mm 1 mps 758 mmHg 56%
    03:00 +23°C° 0 mm 1 mps 757 mmHg 58%
    04:00 +22°C° 0 mm 1 mps 757 mmHg 61%
    05:00 +22°C° 0 mm 1 mps 757 mmHg 63%
    06:00 +22°C° 0 mm 1 mps 757 mmHg 65%
    07:00 +23°C° 0 mm 1 mps 758 mmHg 61%
    08:00 +24°C° 0 mm 1 mps 758 mmHg 57%
    09:00 +25°C° 0 mm 1 mps 759 mmHg 53%
    10:00 +27°C° 0 mm 1 mps 758 mmHg 48%
    11:00 +29°C° 0 mm 1 mps 758 mmHg 44%
    12:00 +30°C° 0 mm 1 mps 758 mmHg 39%
    13:00 +31°C° 0 mm 2 mps 757 mmHg 36%
    14:00 +33°C° 0 mm 3 mps 756 mmHg 33%
    15:00 +34°C° 0 mm 4 mps 755 mmHg 30%
    16:00 +33°C° 0 mm 3 mps 754 mmHg 33%
    17:00 +31°C° 0 mm 3 mps 754 mmHg 36%
    18:00 +30°C° 0 mm 2 mps 754 mmHg 38%
    19:00 +29°C° 0 mm 2 mps 754 mmHg 40%
    20:00 +29°C° 0 mm 2 mps 755 mmHg 42%
    21:00 +28°C° 0 mm 2 mps 755 mmHg 44%
    22:00 +27°C° 0 mm 2 mps 755 mmHg 47%
    23:00 +26°C° 0 mm 2 mps 755 mmHg 49%

    Day after tomorrow, 23 February, Saturday

    Time Temperature Precipitation Wind Pressure Humidity
    00:00 +26°C° 0 mm 3 mps 755 mmHg 52%
    01:00 +25°C° 0 mm 2 mps 755 mmHg 54%
    02:00 +25°C° 0 mm 2 mps 754 mmHg 57%
    03:00 +24°C° 0 mm 2 mps 754 mmHg 59%
    04:00 +23°C° 0 mm 2 mps 754 mmHg 61%
    05:00 +23°C° 0 mm 2 mps 754 mmHg 63%
    06:00 +21°C° 0 mm 2 mps 754 mmHg 65%
    07:00 +23°C° 0 mm 2 mps 755 mmHg 61%
    08:00 +25°C° 0 mm 2 mps 756 mmHg 58%
    09:00 +26°C° 0 mm 3 mps 756 mmHg 54%
    10:00 +28°C° 0 mm 3 mps 756 mmHg 47%
    11:00 +30°C° 0 mm 4 mps 756 mmHg 40%
    12:00 +32°C° 0 mm 4 mps 755 mmHg 32%
    13:00 +33°C° 0 mm 5 mps 754 mmHg 30%
    14:00 +34°C° 0 mm 6 mps 753 mmHg 28%
    15:00 +35°C° 0 mm 7 mps 752 mmHg 25%
    16:00 +34°C° 0 mm 6 mps 752 mmHg 28%
    17:00 +32°C° 0 mm 5 mps 752 mmHg 30%
    18:00 +30°C° 0 mm 4 mps 753 mmHg 33%
    19:00 +29°C° 0 mm 4 mps 753 mmHg 34%
    20:00 +28°C° 0 mm 4 mps 754 mmHg 35%
    21:00 +27°C° 0 mm 4 mps 755 mmHg 35%
    22:00 +26°C° 0 mm 3 mps 755 mmHg 37%
    23:00 +25°C° 0 mm 3 mps 755 mmHg 38%

    24 February, Sunday

    Time Temperature Precipitation Wind Pressure Humidity
    00:00 +25°C° 0 mm 3 mps 755 mmHg 40%
    01:00 +24°C° 0 mm 3 mps 755 mmHg 41%
    02:00 +22°C° 0 mm 3 mps 754 mmHg 43%
    03:00 +21°C° 0 mm 3 mps 754 mmHg 45%
    04:00 +21°C° 0 mm 2 mps 754 mmHg 46%
    05:00 +20°C° 0 mm 2 mps 754 mmHg 48%
    06:00 +20°C° 0 mm 2 mps 755 mmHg 50%
    07:00 +21°C° 0 mm 2 mps 755 mmHg 48%
    08:00 +23°C° 0 mm 2 mps 756 mmHg 45%
    09:00 +24°C° 0 mm 2 mps 757 mmHg 43%
    10:00 +26°C° 0 mm 3 mps 756 mmHg 38%
    11:00 +28°C° 0 mm 3 mps 756 mmHg 33%
    12:00 +30°C° 0 mm 3 mps 756 mmHg 28%
    13:00 +32°C° 0 mm 4 mps 755 mmHg 26%
    14:00 +33°C° 0 mm 4 mps 754 mmHg 24%
    15:00 +33°C° 0 mm 5 mps 753 mmHg 21%
    16:00 +32°C° 0 mm 4 mps 753 mmHg 25%
    17:00 +30°C° 0 mm 3 mps 753 mmHg 28%
    18:00 +29°C° 0 mm 2 mps 752 mmHg 32%
    19:00 +28°C° 0 mm 2 mps 753 mmHg 33%
    20:00 +28°C° 0 mm 3 mps 754 mmHg 35%
    21:00 +27°C° 0 mm 3 mps 755 mmHg 36%
    22:00 +26°C° 0.1 mm 3 mps 755 mmHg 40%
    23:00 +26°C° 0.1 mm 3 mps 755 mmHg 44%

    25 February, Monday

    Time Temperature Precipitation Wind Pressure Humidity
    00:00 +26°C° 0.1 mm 4 mps 756 mmHg 47%
    01:00 +25°C° 0 mm 3 mps 755 mmHg 51%
    02:00 +25°C° 0 mm 2 mps 755 mmHg 54%
    03:00 +24°C° 0 mm 1 mps 754 mmHg 57%
    04:00 +24°C° 0 mm 1 mps 755 mmHg 60%
    05:00 +23°C° 0 mm 1 mps 755 mmHg 62%
    06:00 +23°C° 0 mm 1 mps 755 mmHg 65%
    07:00 +24°C° 0.2 mm 1 mps 756 mmHg 64%
    08:00 +25°C° 0.2 mm 2 mps 757 mmHg 63%
    09:00 +26°C° 0.2 mm 2 mps 757 mmHg 62%
    10:00 +26°C° 0.4 mm 2 mps 757 mmHg 59%
    11:00 +27°C° 0.4 mm 2 mps 757 mmHg 56%
    12:00 +28°C° 0.4 mm 2 mps 756 mmHg 52%
    13:00 +28°C° 0.6 mm 2 mps 755 mmHg 51%
    14:00 +28°C° 0.6 mm 1 mps 754 mmHg 50%
    15:00 +28°C° 0.6 mm 1 mps 754 mmHg 49%
    16:00 +27°C° 0 mm 1 mps 753 mmHg 51%
    17:00 +27°C° 0 mm 2 mps 753 mmHg 54%
    18:00 +26°C° 0 mm 2 mps 753 mmHg 56%
    19:00 +26°C° 0 mm 2 mps 754 mmHg 59%
    20:00 +25°C° 0 mm 2 mps 754 mmHg 62%
    21:00 +25°C° 0 mm 1 mps 755 mmHg 64%
    22:00 +24°C° 1 mm 1 mps 755 mmHg 69%
    23:00 +23°C° 1 mm 1 mps 755 mmHg 73%

    26 February, Tuesday

    Time Temperature Precipitation Wind Pressure Humidity
    00:00 +23°C° 1 mm 1 mps 755 mmHg 77%
    01:00 +21°C° 0.1 mm 2 mps 755 mmHg 78%
    02:00 +21°C° 0.1 mm 2 mps 755 mmHg 78%
    03:00 +21°C° 0.1 mm 3 mps 755 mmHg 79%
    04:00 +20°C° 0 mm 3 mps 755 mmHg 78%
    05:00 +20°C° 0 mm 3 mps 756 mmHg 78%
    06:00 +20°C° 0 mm 3 mps 756 mmHg 77%
    07:00 +21°C° 0 mm 3 mps 756 mmHg 73%
    08:00 +21°C° 0 mm 3 mps 757 mmHg 69%
    09:00 +22°C° 0 mm 3 mps 757 mmHg 66%
    10:00 +24°C° 0 mm 3 mps 757 mmHg 61%
    11:00 +25°C° 0 mm 3 mps 757 mmHg 56%
    12:00 +26°C° 0 mm 3 mps 757 mmHg 51%
    13:00 +25°C° 0.8 mm 3 mps 756 mmHg 54%
    14:00 +25°C° 0.8 mm 2 mps 756 mmHg 58%
    15:00 +24°C° 0.8 mm 2 mps 755 mmHg 61%
    16:00 +24°C° 0.4 mm 2 mps 755 mmHg 65%
    17:00 +23°C° 0.4 mm 2 mps 755 mmHg 68%
    18:00 +23°C° 0.4 mm 2 mps 755 mmHg 71%
    19:00 +21°C° 1.1 mm 3 mps 756 mmHg 73%
    20:00 +21°C° 1.1 mm 4 mps 756 mmHg 75%
    21:00 +21°C° 1.1 mm 5 mps 756 mmHg 77%
    22:00 +20°C° 2.6 mm 6 mps 756 mmHg 79%
    23:00 +20°C° 2.6 mm 7 mps 756 mmHg 81%
    Show more